Gustavo Rojas Pinilla International Airport

Airport
ICAO code: 
SKSP
IATA Code: 
ADZ
Summary
ICAO Region: 
CARSAM
Territory: 
Location: 
San Andres, Archipelago of San Andres, Providencia and Santa Catalina
Serving: 
San Andres
Elevation: 
19 ft
Coordinates: 
Aerial View: 
12° 35' 10.019" N, 81° 42' 7.768" W
Metar
Observation
SKSP 210400Z 07014KT 050V110 9999 SCT017 OVC080 27/23 Q1013 RMK A2993
Station
San Andres Isla / Sesquicentenario
Date/Time
2022-01-21 04:00:00
Wind direction
70°
Wind speed
14 kts
Lowest cloud amount
scattered clouds
Temperature
27°C
Dew point
23°C
Humidity
78%
QNH
1013 hPa
Weather condition
n/a

Gustavo Rojas Pinilla International Airport is the main airport in the archipelago of San Andrés (Saint Andrew), Providencia and Santa Catalina, one of the departments of Colombia.

Climatology

Tropical monsoon climate (Köppen climate classification Am)

Runways

Designator Length Width Surface Rops
6/24 2380 45 ASP Yes/Yes
Airport map: 
Aerial View: 

SKYbrary Partners:

Safety knowledge contributed by: